Regional Weather Roundup
Issued by NWS

Home | Current Version | Previous Version | Text Only | Print | Product List | Glossary Off
Versions: 1 2 3 4 5 6 7 8 9 10 11 12 13 14 15 16 17 18 19 20 21 22 23 24 25 26 27 28 29 30 31 32 33 34 35 36 37 38 39 40 41 42 43 44 45 46 47 48 49 50

000
ASUS43 KFSD 300402
RWRSD

WEATHER ROUNDUP FOR SOUTH DAKOTA
NATIONAL WEATHER SERVICE SIOUX FALLS SD
1100 PM CDT SUN MAR 29 2015

NOTE: "FAIR" INDICATES FEW OR NO CLOUDS BELOW 12,000 FEET WITH NO
SIGNIFICANT WEATHER AND/OR OBSTRUCTIONS TO VISIBILITY.


SDZ001>005-009-010-012>017-300500-
NORTHWEST AND NORTH CENTRAL SOUTH DAKOTA

CITY           SKY/WX    TMP DP  RH WIND       PRES   REMARKS
BUFFALO          N/A     46  28  49 W5        29.95S
FAITH            N/A     47  26  44 SW6       30.01R
MOBRIDGE       CLOUDY    43  31  62 CALM      29.96F
$$

SDZ012>016-024>037-041>051-057-063-072>074-300500-
SOUTHWEST AND SOUTH CENTRAL SOUTH DAKOTA

CITY           SKY/WX    TMP DP  RH WIND       PRES   REMARKS
RAPID CTY ARPT MOCLDY    43  28  55 CALM      30.06S
PIERRE         CLOUDY    48  29  47 CALM      30.00F
CUSTER         CLOUDY    42  21  43 CALM      30.11S
PHILIP         MOCLDY    42  23  46 W6        30.03S
PINE RIDGE     PTCLDY    40  26  57 CALM      30.07F
SPEARFISH      FAIR      41  27  56 CALM      30.07S
WINNER         FAIR      52  22  30 S7        30.06F
$$

SDZ004>011-016>023-039-040-300500-
NORTHEAST SOUTH DAKOTA

CITY           SKY/WX    TMP DP  RH WIND       PRES   REMARKS
ABERDEEN       CLEAR     34  21  59 SW6       29.99F WCI  29
WATERTOWN      CLEAR     37  25  61 SW5       29.99F
SISSETON         N/A     43  27  53 W10       29.95F
$$

SDZ017-020-022-023-036>040-048>070-300500-
SOUTHEAST SOUTH DAKOTA

CITY           SKY/WX    TMP DP  RH WIND       PRES   REMARKS
SIOUX FALLS    CLEAR     34  22  61 SW5       30.05S WCI  30
HURON          CLEAR     40  22  48 SW5       30.02S
MITCHELL       CLEAR     44  23  43 SW8       30.05S
YANKTON        CLEAR     46  19  34 SW8       30.08F
$$

ABBREVIATIONS USED IN REMARKS
   TC - TEMPERATURE IN CELSIUS
  WCI - WIND CHILL INDEX
   HX - HEAT INDEX
  VSB - VISIBILITY




USA.gov is the U.S. government's official web portal to all federal, state and local government web resources and services.